sat.trackr.live / text

‹ back to catalog

STARLINK-3046

NORAD 49169 · 2021-082AR

PAYLOAD ACTIVE UNKNOWN

§ Identity

Operator
Country
US
Launch date
2021-09-14
Launch site
AFWTR
Launch vehicle
Mass (kg)
RCS (m²)

Purposes: comms

External: N2YO · Heavens-Above · Gunter

§ Orbital elements

Epoch: 2026-05-25T03:23:34.846656Z

Period
96.11 min
Inclination
70.0001°
Eccentricity
0.0003064
Mean motion
14.98332765 rev/d
Perigee alt
569.9 km
Apogee alt
574.2 km
Semi-major
6,950.2 km
B*
1.7858e-5
RAAN
81.7049°
Arg perigee
270.5301°
Mean anomaly
89.5507°
Rev number
25,792

§ Raw data

STARLINK-30461 49169U 21082AR  26145.14137554  .00000120  00000+0  17858-4 0  99952 49169  70.0001  81.7049 0003064 270.5301  89.5507 14.98332765257926

JSON: /api/v1/satellites/49169 · /tle

For live sub-satellite position, see the globe view (requires WebGL).

§ Visibility from observer

Set your observer location to see the next 7 days of passes ≥ 10°. The values pass through the URL so the page stays shareable.

No JS? Fill the form by hand. The geolocation button needs JavaScript.